| time (UTC) | temp C | wind direction | speed KPH | gust KPH | rain 1hr cm | rain 24hr cm | rain mn cm | humidity % | barometer mb |
| 20260901161803 | 18 | 192 | 11.3 | 20.9 | 0.00 | 0.13 | 0.03 | 70 | |
| 20260901160903 | 18 | 188 | 9.7 | 19.3 | 0.00 | 0.13 | 0.03 | 71 | |
| 20260901160213 | 18 | 184 | 6.4 | 14.5 | 0.00 | 0.13 | 0.03 | 72 | |
| 20260901155612 | 18 | 184 | 8.0 | 16.1 | 0.00 | 0.13 | 0.03 | 72 | |
| 20260901154503 | 18 | 178 | 9.7 | 19.3 | 0.00 | 0.13 | 0.03 | 72 | |
| 20260901153603 | 18 | 197 | 8.0 | 16.1 | 0.00 | 0.13 | 0.03 | 71 | |
| 20260901152703 | 18 | 182 | 8.0 | 16.1 | 0.00 | 0.13 | 0.03 | 69 | |
| 20260901151803 | 18 | 162 | 6.4 | 17.7 | 0.00 | 0.13 | 0.03 | 70 | |
| 20260901150903 | 18 | 191 | 6.4 | 19.3 | 0.00 | 0.13 | 0.03 | 71 | |
| 20260901150003 | 18 | 169 | 6.4 | 12.9 | 0.00 | 0.13 | 0.03 | 71 | |
| 20260901145612 | 18 | 164 | 4.8 | 12.9 | 0.00 | 0.13 | 0.03 | 72 | |
| 20260901144503 | 17 | 146 | 8.0 | 17.7 | 0.00 | 0.13 | 0.03 | 73 | |
| 20260901143603 | 17 | 157 | 6.4 | 16.1 | 0.00 | 0.13 | 0.03 | 74 | |
| 20260901142703 | 16 | 171 | 6.4 | 8.0 | 0.00 | 0.13 | 0.03 | 76 | |
| 20260901134503 | 15 | 136 | 1.6 | 8.0 | 0.00 | 0.13 | 0.03 | 78 | |
| 20260901133603 | 15 | 134 | 3.2 | 6.4 | 0.00 | 0.13 | 0.03 | 78 | |
| 20260901132703 | 15 | 138 | 3.2 | 6.4 | 0.00 | 0.13 | 0.03 | 77 | |
| 20260901131803 | 15 | 128 | 3.2 | 8.0 | 0.00 | 0.13 | 0.03 | 77 | |
| 20260901130903 | 15 | 128 | 3.2 | 8.0 | 0.00 | 0.13 | 0.03 | 77 | |
| 20260901130003 | 15 | 141 | 4.8 | 9.7 | 0.00 | 0.13 | 0.03 | 78 | |
| 20260901125612 | 15 | 144 | 4.8 | 11.3 | 0.00 | 0.13 | 0.03 | 78 | |
| 20260901124503 | 15 | 142 | 4.8 | 11.3 | 0.00 | 0.13 | 0.03 | 80 | |
| 20260901123603 | 15 | 141 | 4.8 | 14.5 | 0.00 | 0.13 | 0.03 | 83 | |
| 20260901122703 | 13 | 132 | 3.2 | 8.0 | 0.00 | 0.13 | 0.03 | 85 | |
| 20260901121803 | 13 | 155 | 0.0 | 6.4 | 0.00 | 0.13 | 0.03 | 86 | |
| 20260901121113 | 12 | 0 | 0.0 | 0.0 | 0.00 | 0.13 | 0.03 | 86 | |
| 20260901120003 | 12 | 0 | 0.0 | 0.0 | 0.00 | 0.13 | 0.03 | 86 | |
| 20260901115403 | 12 | 0 | 0.0 | 0.0 | 0.00 | 0.13 | 0.03 | 86 | |
| 20260901114713 | 12 | 0 | 0.0 | 0.0 | 0.00 | 0.13 | 0.03 | 87 | |
| 20260901113813 | 12 | 0 | 0.0 | 0.0 | 0.00 | 0.13 | 0.03 | 87 | |
| 20260901112912 | 11 | 0 | 0.0 | 0.0 | 0.00 | 0.13 | 0.03 | 87 | |
| 20260901111803 | 10 | 0 | 0.0 | 0.0 | 0.00 | 0.13 | 0.03 | 85 | |
| 20260901110903 | 10 | 0 | 0.0 | 0.0 | 0.00 | 0.13 | 0.03 | 85 | |
| 20260901110003 | 10 | 0 | 0.0 | 0.0 | 0.00 | 0.13 | 0.03 | 84 | |
| 20260901105403 | 11 | 0 | 0.0 | 0.0 | 0.00 | 0.13 | 0.03 | 84 | |
| 20260901104713 | 11 | 0 | 0.0 | 0.0 | 0.00 | 0.13 | 0.03 | 83 | |
| 20260901103603 | 11 | 287 | 0.0 | 4.8 | 0.00 | 0.13 | 0.03 | 82 | |
| 20260901102703 | 12 | 287 | 3.2 | 8.0 | 0.00 | 0.13 | 0.03 | 81 | |
| 20260901101803 | 12 | 276 | 3.2 | 9.7 | 0.00 | 0.13 | 0.03 | 81 | |
| 20260901100903 | 13 | 140 | 0.0 | 1.6 | 0.00 | 0.13 | 0.03 | 81 | |
| 20260901100003 | 13 | 140 | 0.0 | 4.8 | 0.00 | 0.13 | 0.03 | 81 | |
| 20260901095403 | 13 | 140 | 0.0 | 4.8 | 0.00 | 0.13 | 0.03 | 81 | |
| 20260901094503 | 13 | 155 | 3.2 | 12.9 | 0.00 | 0.13 | 0.03 | 82 | |
| 20260901093603 | 13 | 179 | 6.4 | 12.9 | 0.00 | 0.13 | 0.03 | 83 | |
| 20260901092703 | 13 | 197 | 6.4 | 11.3 | 0.00 | 0.13 | 0.03 | 86 | |
| 20260901091803 | 13 | 209 | 6.4 | 16.1 | 0.00 | 0.13 | 0.03 | 87 | |
| 20260901090903 | 12 | 205 | 4.8 | 9.7 | 0.00 | 0.13 | 0.03 | 88 | |
| 20260901090003 | 12 | 203 | 0.0 | 6.4 | 0.00 | 0.13 | 0.03 | 88 | |
| 20260901085613 | 12 | 206 | 0.0 | 6.4 | 0.00 | 0.13 | 0.03 | 88 | |
| 20260901084503 | 11 | 225 | 3.2 | 9.7 | 0.00 | 0.13 | 0.03 | 88 | |
| 20260901083603 | 11 | 249 | 1.6 | 4.8 | 0.00 | 0.13 | 0.03 | 88 | |
| 20260901082913 | 11 | 249 | 1.6 | 4.8 | 0.00 | 0.13 | 0.03 | 88 | |
| 20260901081803 | 11 | 239 | 6.4 | 11.3 | 0.00 | 0.13 | 0.03 | 88 | |
| 20260901080903 | 11 | 201 | 3.2 | 8.0 | 0.00 | 0.13 | 0.03 | 88 | |
| 20260901080213 | 12 | 189 | 1.6 | 8.0 | 0.00 | 0.13 | 0.03 | 88 | |
| 20260901075403 | 11 | 188 | 1.6 | 4.8 | 0.00 | 0.13 | 0.03 | 88 | |
| 20260901074503 | 11 | 188 | 0.0 | 4.8 | 0.00 | 0.13 | 0.03 | 87 | |
| 20260901073603 | 11 | 188 | 0.0 | 1.6 | 0.03 | 0.13 | 0.03 | 87 | |
| 20260901072703 | 11 | 0 | 0.0 | 0.0 | 0.03 | 0.13 | 0.03 | 87 | |
| 20260901071803 | 11 | 188 | 0.0 | 1.6 | 0.03 | 0.13 | 0.03 | 87 | |
| 20260901070903 | 11 | 188 | 0.0 | 3.2 | 0.03 | 0.13 | 0.03 | 87 | |
| 20260901070003 | 11 | 0 | 0.0 | 0.0 | 0.03 | 0.13 | 0.03 | 86 | |
| 20260901065403 | 11 | 0 | 0.0 | 0.0 | 0.03 | 0.13 | 0.03 | 86 | |
| 20260901064503 | 11 | 0 | 0.0 | 0.0 | 0.03 | 0.13 | 0.03 | 86 | |
| 20260901063603 | 11 | 0 | 0.0 | 0.0 | 0.00 | 0.10 | 0.00 | 86 | |
| 20260901062703 | 11 | 189 | 0.0 | 3.2 | 0.00 | 0.10 | 0.00 | 85 | |
| 20260901061803 | 12 | 188 | 1.6 | 3.2 | 0.00 | 0.10 | 0.00 | 85 | |
| 20260901060903 | 12 | 188 | 0.0 | 4.8 | 0.00 | 0.10 | 0.00 | 85 | |
| 20260901060008 | 12 | 188 | 0.0 | 3.2 | 0.00 | 0.10 | 0.00 | 84 | |
| 20260901055403 | 12 | 188 | 0.0 | 3.2 | 0.00 | 0.10 | 0.10 | 84 | |
| 20260901054713 | 12 | 0 | 0.0 | 0.0 | 0.00 | 0.10 | 0.10 | 84 | |
| 20260901053813 | 12 | 188 | 0.0 | 3.2 | 0.00 | 0.10 | 0.10 | 84 | |
| 20260901052703 | 12 | 188 | 1.6 | 6.4 | 0.00 | 0.10 | 0.10 | 83 | |
| 20260901051803 | 12 | 188 | 3.2 | 9.7 | 0.00 | 0.10 | 0.10 | 82 | |
| 20260901050903 | 13 | 181 | 3.2 | 11.3 | 0.00 | 0.10 | 0.10 | 81 | |
| 20260901050003 | 13 | 176 | 3.2 | 6.4 | 0.00 | 0.10 | 0.10 | 80 | |
| 20260901045403 | 13 | 177 | 3.2 | 14.5 | 0.00 | 0.10 | 0.10 | 79 | |
| 20260901044505 | 13 | 150 | 4.8 | 14.5 | 0.00 | 0.10 | 0.10 | 78 | |
| 20260901043603 | 13 | 91 | 3.2 | 11.3 | 0.00 | 0.10 | 0.10 | 76 | |
| 20260901042703 | 13 | 34 | 3.2 | 20.9 | 0.00 | 0.10 | 0.10 | 76 | |
| 20260901041803 | 13 | 4 | 4.8 | 20.9 | 0.00 | 0.10 | 0.10 | 77 | |
| 20260901040903 | 13 | 21 | 6.4 | 20.9 | 0.00 | 0.10 | 0.10 | 80 | |
| 20260901040003 | 13 | 15 | 9.7 | 24.1 | 0.00 | 0.10 | 0.10 | 81 | |
| 20260901035613 | 13 | 5 | 11.3 | 24.1 | 0.00 | 0.10 | 0.10 | 81 | |
| 20260901034503 | 13 | 350 | 9.7 | 19.3 | 0.00 | 0.10 | 0.10 | 81 | |
| 20260901033603 | 13 | 359 | 4.8 | 14.5 | 0.00 | 0.10 | 0.10 | 81 | |
| 20260901032703 | 13 | 8 | 8.0 | 24.1 | 0.00 | 0.10 | 0.10 | 80 | |
| 20260901031803 | 13 | 9 | 9.7 | 22.5 | 0.03 | 0.10 | 0.10 | 80 | |
| 20260901030903 | 13 | 360 | 8.0 | 17.7 | 0.03 | 0.10 | 0.10 | 79 | |
| 20260901030213 | 13 | 356 | 9.7 | 19.3 | 0.03 | 0.10 | 0.10 | 79 | |
| 20260901025403 | 13 | 343 | 12.9 | 25.7 | 0.05 | 0.10 | 0.10 | 79 | |
| 20260901024503 | 13 | 349 | 12.9 | 24.1 | 0.08 | 0.10 | 0.10 | 80 | |
| 20260901023603 | 13 | 341 | 8.0 | 16.1 | 0.10 | 0.10 | 0.10 | 81 | |
| 20260901022703 | 13 | 352 | 9.7 | 22.5 | 0.10 | 0.10 | 0.10 | 80 | |
| 20260901021803 | 13 | 2 | 9.7 | 20.9 | 0.08 | 0.08 | 0.08 | 79 | |
| 20260901020903 | 13 | 22 | 9.7 | 29.0 | 0.08 | 0.08 | 0.08 | 77 | |
| 20260901020003 | 14 | 18 | 11.3 | 24.1 | 0.08 | 0.08 | 0.08 | 75 | |
| 20260901015614 | 14 | 19 | 11.3 | 24.1 | 0.08 | 0.08 | 0.08 | 74 | |
| 20260901014503 | 15 | 6 | 12.9 | 33.8 | 0.03 | 0.03 | 0.03 | 70 | |
| 20260901013603 | 15 | 359 | 11.3 | 30.6 | 0.00 | 0.00 | 0.00 | 67 | |
| 20260901012914 | 15 | 26 | 8.0 | 22.5 | 0.00 | 0.00 | 0.00 | 65 | |
| 20260901011803 | 16 | 348 | 11.3 | 25.7 | 0.00 | 0.00 | 0.00 | 60 | |
| 20260901010903 | 17 | 343 | 14.5 | 29.0 | 0.00 | 0.00 | 0.00 | 57 | |
| 20260901010003 | 17 | 348 | 11.3 | 20.9 | 0.00 | 0.00 | 0.00 | 59 | |
| 20260901005614 | 17 | 342 | 9.7 | 22.5 | 0.00 | 0.00 | 0.00 | 59 | |
| 20260901004503 | 18 | 342 | 17.7 | 32.2 | 0.00 | 0.00 | 0.00 | 57 | |
| 20260901003603 | 21 | 307 | 20.9 | 40.2 | 0.00 | 0.00 | 0.00 | 51 | |
| 20260901002703 | 23 | 197 | 9.7 | 22.5 | 0.00 | 0.00 | 0.00 | 46 | |
| 20260901001803 | 23 | 173 | 11.3 | 48.3 | 0.00 | 0.00 | 0.00 | 44 | |
| 20260901000903 | 24 | 171 | 8.0 | 19.3 | 0.00 | 0.00 | 0.00 | 45 | |
| 20260901000003 | 24 | 132 | 9.7 | 20.9 | 0.00 | 0.00 | 0.00 | 45 | |
| 20260831235403 | 24 | 122 | 11.3 | 29.0 | 0.00 | 0.00 | 0.00 | 46 | |
| 20260831234503 | 23 | 126 | 14.5 | 29.0 | 0.00 | 0.00 | 0.00 | 46 | |
| 20260831233603 | 23 | 123 | 12.9 | 24.1 | 0.00 | 0.00 | 0.00 | 47 | |
| 20260831232703 | 23 | 131 | 11.3 | 24.1 | 0.00 | 0.00 | 0.00 | 46 | |
| 20260831232013 | 23 | 120 | 14.5 | 30.6 | 0.00 | 0.00 | 0.00 | 45 | |
| 20260831230903 | 24 | 121 | 12.9 | 25.7 | 0.00 | 0.00 | 0.00 | 44 | |
| 20260831230003 | 24 | 120 | 12.9 | 30.6 | 0.00 | 0.00 | 0.00 | 42 | |
| 20260831225403 | 24 | 129 | 12.9 | 30.6 | 0.00 | 0.00 | 0.00 | 43 | |
| 20260831224503 | 24 | 116 | 14.5 | 41.8 | 0.00 | 0.00 | 0.00 | 44 | |
| 20260831223603 | 24 | 117 | 16.1 | 41.8 | 0.00 | 0.00 | 0.00 | 44 | |
| 20260831222703 | 24 | 109 | 11.3 | 33.8 | 0.00 | 0.00 | 0.00 | 46 | |
| 20260831221803 | 24 | 100 | 12.9 | 25.7 | 0.00 | 0.00 | 0.00 | 46 | |
| 20260831220903 | 24 | 120 | 11.3 | 27.4 | 0.00 | 0.00 | 0.00 | 46 | |
| 20260831220003 | 23 | 122 | 11.3 | 20.9 | 0.00 | 0.00 | 0.00 | 46 | |
| 20260831215403 | 23 | 135 | 11.3 | 24.1 | 0.00 | 0.00 | 0.00 | 48 | |
| 20260831214714 | 23 | 138 | 11.3 | 24.1 | 0.00 | 0.00 | 0.00 | 48 | |
| 20260831213603 | 22 | 190 | 11.3 | 33.8 | 0.00 | 0.00 | 0.00 | 51 | |
| 20260831212703 | 23 | 201 | 8.0 | 20.9 | 0.00 | 0.00 | 0.00 | 53 | |
| 20260831211803 | 21 | 109 | 14.5 | 32.2 | 0.00 | 0.00 | 0.00 | 49 | |
| 20260831210903 | 20 | 122 | 14.5 | 35.4 | 0.00 | 0.00 | 0.00 | 46 | |
| 20260831210003 | 21 | 136 | 14.5 | 29.0 | 0.00 | 0.00 | 0.00 | 43 | |
| 20260831205403 | 21 | 148 | 11.3 | 29.0 | 0.00 | 0.00 | 0.00 | 39 | |
| 20260831204503 | 21 | 146 | 11.3 | 24.1 | 0.00 | 0.00 | 0.00 | 43 | |
| 20260831203603 | 21 | 136 | 12.9 | 29.0 | 0.00 | 0.00 | 0.00 | 45 | |
| 20260831202912 | 22 | 135 | 12.9 | 20.9 | 0.00 | 0.00 | 0.00 | 46 |